Regional Weather Roundup
Issued by NWS Albany, NY

Home | Current Version | Previous Version | Text Only | Print | Product List | Glossary On
Versions: 1 2 3 4 5 6 7 8 9 10 11 12 13 14 15 16 17 18 19 20 21 22 23 24 25 26 27 28 29 30 31 32 33 34 35 36 37 38 39 40 41 42 43 44 45 46 47 48 49 50
000
ASUS41 KALY 010310
RWRALY

NEW YORK STATE HOURLY WEATHER ROUNDUP
NATIONAL WEATHER SERVICE ALBANY NY
1100 PM EDT TUE JUN 30 2015

NOTE: "FAIR" INDICATES FEW OR NO CLOUDS BELOW 12,000 FEET WITH NO
SIGNIFICANT WEATHER AND/OR NO OBSTRUCTIONS TO VISIBILITY.

NYZ032-033-038>043-046>054-057>066-NYZ062>081-010400-
EAST


CITY           SKY/WX    TMP DP  RH WIND       PRES   REMARKS
ALBANY         MOCLDY    69  59  70 SE7       29.86F
GLENS FALLS    MOCLDY    60  59  96 CALM      29.88F
POUGHKEEPSIE   CLOUDY    73  64  73 SE7       29.87S
NEWBURGH       MOCLDY    72  68  88 S8        29.89S
MONTGOMERY     CLOUDY    67  66  97 CALM      29.87S
WHITE PLAINS   CLOUDY    71  67  87 SE10      29.89F
ISLIP          CLOUDY    72  67  84 SE16      29.89F
NEW YORK CITY  CLOUDY    75  68  78 S18       29.87S
CENTRAL PARK   MOCLDY    74  68  81 VRB7      29.90S
$$

NYZ005>009-017-018-044>046-055-056-010400-
CENTRAL


CITY           SKY/WX    TMP DP  RH WIND       PRES   REMARKS
FULTON         MOCLDY    65  63  93 CALM      29.78R
SYRACUSE       TSTM      67  66  97 SE9       29.79F
ROME           LGT RAIN  64  63  96 SE7       29.84F
ELMIRA         CLOUDY    67  63  87 CALM      29.80R
BINGHAMTON     RAIN      63  62  97 S10G17    29.85F FOG
MONTICELLO     CLOUDY    63  61  94 E6        29.90S
$$

NYZ026>034-041>043-010400-
NORTH


CITY           SKY/WX    TMP DP  RH WIND       PRES   REMARKS
WATERTOWN      PTCLDY    67  62  84 SE5       29.77F
FORT DRUM      NOT AVBL
MASSENA        MOCLDY    62  59  90 E5        29.82S
SARANAC LAKE   MOCLDY    59  58  96 SW3       29.86F
PLATTSBURGH    MOCLDY    62  61  96 S6        29.86F
$$

NYZ001>004-010>016-019>021-010400-
WEST


CITY           SKY/WX    TMP DP  RH WIND       PRES   REMARKS
NIAGARA FALLS  CLOUDY    65  59  81 SW8       29.76S
BUFFALO        LGT RAIN  65  60  84 SW6       29.77S
DUNKIRK        CLOUDY    63  62  97 SW3       29.78R
JAMESTOWN      CLOUDY    61  57  88 SW5       29.82S VSB 1
WELLSVILLE     CLOUDY    64  61  90 S6        29.83F
ROCHESTER      LGT RAIN  67  65  93 S3        29.77S
PENN YAN       MOCLDY    66  64  93 CALM      29.79S
$$

             KEY
       WCI = WIND CHILL INDEX
       VSB = VISIBILITY
       HX  = HEAT INDEX
$$



USA.gov is the U.S. government's official web portal to all federal, state and local government web resources and services.